Goodland, KS

6:24 PM MDT on June 28, 2017 (GMT -0600)
Renner-Goodland Municipal

Weather History for KGLD - June, 2013

Change the Weather History Date:

Thursday, June 13, 2013

  Actual Average Record
Temperature  
Mean Temperature 76 °F 69 °F  
Max Temperature 96 °F 83 °F 101 °F (1952)
Min Temperature 55 °F 55 °F 37 °F (1947)
Degree Days  
Heating Degree Days 0 1  
Month to date heating degree days 31 28  
Since 1 June heating degree days 31 28  
Since 1 July heating degree days 5985 5894  
Cooling Degree Days 11 5  
Month to date cooling degree days 74 52  
Year to date cooling degree days 163 93  
Since 1 June cooling degree days 74 52  
Growing Degree Days 26 (Base 50)    
Moisture  
Dew Point 53 °F    
Average Humidity 56    
Maximum Humidity 83    
Minimum Humidity 28    
Precipitation  
Precipitation 0.04 in 0.10 in 1.23 in (1988)
Month to date precipitation 0.91 1.44  
Year to date precipitation 5.27 7.92  
Snow  
Snow 0.00 in 0.00 in - ()
Month to date snowfall 0.0 0.0  
Since 1 June snowfall 0.0 0.0  
Since 1 July snowfall 59.2 35.5  
Snow Depth 0.00 in    
Sea Level Pressure  
Sea Level Pressure 29.96 in    
Wind  
Wind Speed 15 mph (SE)    
Max Wind Speed 41 mph    
Max Gust Speed 52 mph    
Visibility 10 miles    
Events Rain , Thunderstorm    
T = Trace of Precipitation, MM = Missing Value Source: NWS Daily Summary

Daily Weather History Graph

Daily Weather History Graph

Search for Another Location

Airport or City:

Trip Planner

Search our weather history database for the weather conditions in past years. The results will help you decide how hot, cold, wet, or windy it might be!

Date:

Astronomy

Jun. 13, 2013 Rise Set
Actual Time 5:19 AM MDT 8:14 PM MDT
Civil Twilight 4:47 AM MDT 8:47 PM MDT
Nautical Twilight 4:06 AM MDT 9:27 PM MDT
Astronomical Twilight 3:19 AM MDT 10:15 PM MDT
Moon 9:56 AM MDT (6/13) 11:23 PM MDT (6/13)
Length of Visible Light 15h 59m
Length of Day
14h 55m
Waxing Crescent, 22% of the Moon is Illuminated
Jun 13
Waxing Crescent
Jun 16
First Quarter
Jun 23
Full
Jun 29
Last Quarter
Jul 8
New

Hourly Weather History & Observations

Time (MDT) Temp. Heat Index Dew Point Humidity Pressure Visibility Wind Dir Wind Speed Gust Speed Precip Events Conditions
12:53 AM 61.0 °F - 52.0 °F 72% 30.02 in 10.0 mi East 12.7 mph - N/A   Clear
1:53 AM 59.0 °F - 51.1 °F 75% 30.01 in 10.0 mi East 10.4 mph - N/A   Clear
2:53 AM 57.9 °F - 51.1 °F 78% 30.00 in 10.0 mi ESE 9.2 mph - N/A   Clear
3:53 AM 57.0 °F - 51.1 °F 81% 30.00 in 10.0 mi ESE 12.7 mph - N/A   Clear
4:53 AM 55.9 °F - 50.0 °F 80% 30.01 in 10.0 mi ESE 12.7 mph - N/A   Clear
5:53 AM 55.0 °F - 50.0 °F 83% 30.01 in 10.0 mi ESE 13.8 mph - N/A   Clear
6:53 AM 57.0 °F - 51.1 °F 81% 30.01 in 10.0 mi SE 20.7 mph 25.3 mph N/A   Clear
7:25 AM 57.2 °F - 50.0 °F 77% 30.17 in 10.0 mi ESE 11.5 mph - N/A   Mostly Cloudy
7:53 AM 59.0 °F - 50.0 °F 72% 30.06 in 10.0 mi SE 11.5 mph - N/A   Scattered Clouds
8:53 AM 62.1 °F - 50.0 °F 65% 30.07 in 10.0 mi ESE 9.2 mph 16.1 mph N/A   Clear
9:53 AM 66.9 °F - 50.0 °F 54% 30.05 in 10.0 mi SE 12.7 mph - N/A   Clear
10:53 AM 70.0 °F - 52.0 °F 53% 30.04 in 10.0 mi SE 16.1 mph 20.7 mph N/A   Clear
11:53 AM 73.0 °F - 52.0 °F 48% 30.02 in 10.0 mi SE 10.4 mph 18.4 mph N/A   Clear
12:53 PM 77.0 °F - 53.1 °F 43% 29.99 in 10.0 mi SSE 13.8 mph 20.7 mph N/A   Clear
1:53 PM 84.0 °F 82.6 °F 54.0 °F 35% 29.95 in 10.0 mi SSE 18.4 mph 24.2 mph N/A   Clear
2:53 PM 90.0 °F 87.9 °F 55.0 °F 30% 29.89 in 10.0 mi SE 17.3 mph 25.3 mph N/A   Clear
3:53 PM 93.0 °F 91.4 °F 55.9 °F 29% 29.84 in 10.0 mi South 16.1 mph 25.3 mph N/A   Clear
4:53 PM 93.0 °F 91.4 °F 55.9 °F 29% 29.80 in 10.0 mi SSE 21.9 mph 32.2 mph N/A   Clear
5:53 PM 91.0 °F 88.5 °F 53.1 °F 27% 29.81 in 10.0 mi SSE 19.6 mph - N/A   Clear
6:25 PM 87.8 °F - 44.6 °F 22% 29.99 in 10.0 mi WSW 27.6 mph 35.7 mph N/A Thunderstorm Partly Cloudy
6:42 PM 78.8 °F - 48.2 °F 34% 29.99 in 4.0 mi WSW 38.0 mph 50.6 mph 0.00 in Rain , Thunderstorm Light Thunderstorms and Rain
6:49 PM 77.0 °F - 50.0 °F 39% 29.99 in 4.0 mi West 40.3 mph 51.8 mph 0.00 in Rain , Thunderstorm Light Thunderstorms and Rain
6:53 PM 75.0 °F - 52.0 °F 44% 29.90 in 5.0 mi West 38.0 mph 51.8 mph 0.00 in Rain , Thunderstorm Light Thunderstorms and Rain
7:41 PM 69.8 °F - 59.0 °F 68% 29.96 in 10.0 mi NNW 5.8 mph - 0.02 in   Scattered Clouds
7:53 PM 71.1 °F - 57.0 °F 61% 29.87 in 10.0 mi NE 6.9 mph - 0.02 in   Partly Cloudy
8:23 PM 71.6 °F - 57.2 °F 60% 29.96 in 10.0 mi SE 4.6 mph - N/A Thunderstorm Partly Cloudy
8:53 PM 72.0 °F - 62.1 °F 71% 29.89 in 10.0 mi SSE 6.9 mph - N/A Thunderstorm Thunderstorm
9:22 PM 71.6 °F - 57.2 °F 60% 29.95 in 10.0 mi ESE 32.2 mph 42.6 mph 0.02 in Rain , Thunderstorm Light Rain
9:31 PM 69.8 °F - 55.4 °F 60% 29.93 in 10.0 mi East 25.3 mph 38.0 mph 0.02 in Thunderstorm Scattered Clouds
9:44 PM 69.8 °F - 55.4 °F 60% 29.95 in 10.0 mi East 26.5 mph 34.5 mph 0.02 in   Partly Cloudy
9:53 PM 70.0 °F - 55.0 °F 59% 29.87 in 10.0 mi ESE 20.7 mph 35.7 mph 0.02 in   Clear
10:29 PM 66.2 °F - 57.2 °F 73% 30.02 in 10.0 mi NNE 19.6 mph 23.0 mph N/A   Clear
10:53 PM 69.1 °F - 55.9 °F 63% 29.89 in 10.0 mi East 16.1 mph 26.5 mph N/A   Clear
11:11 PM 66.2 °F - 55.4 °F 68% 30.01 in 10.0 mi NE 17.3 mph 23.0 mph N/A   Clear
11:53 PM 68.0 °F - 57.9 °F 70% 29.86 in 10.0 mi ESE 19.6 mph - N/A   Clear